Station WPOW1 - West Point, WA Image indicating link to RSS feed of recent meteorological observations for station WPOW1


Conditions at WPOW1 as of
(2:00 am PDT)
0900 GMT on 09/24/2023:
     

Click on the graph icon in the table below to see a time series plot of the last five days of that observation.

5-day plot - Wind Direction Wind Direction (WDIR): S ( 180 deg true )
5-day plot - Wind Speed Wind Speed (WSPD):3.6 m/s
5-day plot - Wind Gust Wind Gust (GST):4.1 m/s
5-day plot - Atmospheric Pressure Atmospheric Pressure (PRES):1015.5 mb
5-day plot - Pressure Tendency Pressure Tendency (PTDY): -0.3 mb ( Falling )
5-day plot - Air Temperature Air Temperature (ATMP): 13.0 °C
5-day plot - Dew Point Dew Point (DEWP): 13.0 °C
5-day plot - Wind Speed at 10 Meters Wind Speed at 10 meters (WSPD10M): 4 m/s
5-day plot - Wind Speed at 20 Meters Wind Speed at 20 meters (WSPD20M): 4 m/s
5-day plot -  Wind Speed, Wind Gust and Atmospheric Pressure Combined plot of Wind Speed, Gust, and Air Pressure
Continuous Winds
TIME
(PDT)
5-day plot - Wind Direction WDIR 5-day plot - Wind Speed WSPD
2:00 amS ( 179 deg ) 3.6 m/s
1:50 amS ( 186 deg ) 3.6 m/s
1:40 amS ( 179 deg ) 3.1 m/s
1:30 amS ( 171 deg ) 3.1 m/s
1:20 amS ( 182 deg ) 3.1 m/s
1:10 amS ( 189 deg ) 2.6 m/s
 
Peak gust during the measurement hour
TIME
(PDT)
5-day plot - Gust Direction GDR 5-day plot - Gust Speed GST
1:55 amS ( 180 deg ) 4.1 m/s
Previous observations
TIME
(PDT)
5-day plot - Wind Direction
WDIR
 
5-day plot - Wind Speed
WSPD
m/s
5-day plot - Wind Gust
GST
m/s
5-day plot - Wave Height
WVHT
m
5-day plot - Dominant Wave Period
DPD
sec
5-day plot - Average Wave Period
APD
sec
5-day plot - Mean Wave Direction
MWD
 
5-day plot - Atmospheric Pressure
PRES
mb
5-day plot - Pressure Tendency
PTDY
mb
5-day plot - Air Temperature
ATMP
°C
5-day plot - Water Temperature
WTMP
°C
5-day plot - Dew Point
DEWP
°C
5-day plot - Salinity
SAL
psu
5-day plot - Visibility
VIS
km
5-day plot - Tide (above MLLW)
TIDE
m
2023-09-24 01:00 am S 3 3----1015.4 -0.5 13.1- 13.1---
2023-09-24 12:00 am S 2 2----1015.7 -0.3 13.5- 13.5---
2023-09-23 11:00 pm S 3 3----1015.8 +0.3 13.4- 13.4---
2023-09-23 10:00 pm S 3 4----1015.9 +0.6 13.6- 13.6---
2023-09-23 09:00 pmSSW 5 6----1016.0 +0.8 13.8- 13.8---
2023-09-23 08:00 pm S 8 8----1015.5 +0.3 13.9- 13.9---
2023-09-23 07:00 pm S 8 9----1015.3 +0.0 14.1- 13.9---
2023-09-23 06:00 pm S 8 9----1015.2 +0.5 14.2- 13.7---
2023-09-23 05:00 pm S 7 8----1015.2 +0.9 14.3- 13.5---
2023-09-23 04:00 pm S 8 9----1015.2 +1.0 14.1- 13.0---
2023-09-23 03:00 pm S 8 8----1014.7 +0.9 13.8- 12.4---
2023-09-23 02:00 pm S 9 10----1014.3 +0.9 14.3- 13.2---
2023-09-23 01:00 pm S 4 5----1014.2 +0.8 15.0- 12.3---
2023-09-23 12:00 pm S 6 6----1013.8 +0.5 15.4- 11.1---
2023-09-23 11:00 am S 8 8----1013.4 +0.0 15.3- 10.9---
2023-09-23 10:00 am S 7 7----1013.4 +0.6 14.9- 11.0---
2023-09-23 09:00 amSSE 6 6----1013.3 +0.8 14.7- 10.2---
2023-09-23 08:00 amSSE 6 7----1013.3 +1.1 14.5- 11.5---
2023-09-23 07:00 am S 9 10----1012.8 +0.6 14.4- 12.8---
2023-09-23 06:00 am S 9 10----1012.5 +0.3 14.4- 13.0---
2023-09-23 05:00 am S 9 9----1012.2 -0.4 14.5- 12.0---
2023-09-23 04:00 am S 7 7----1012.2 +0.0 14.7- 10.8---
2023-09-23 03:00 amSSE 6 8----1012.2 -0.6 15.5- 9.5---
2023-09-23 02:00 am S 7 7----1012.6 +0.0 15.4- 11.0---